Location: Augustów
(53.8466°N, 22.9876°E)
Time: 05:20:33
(UTC+02:00)

ISS - Visible Passes

Search period start: 28 May 2018 00:00
Search period end: 07 June 2018 00:00
Orbit: 402 x 407 km, 51.6° (Epoch: 28 May)

Date Brightness Start Highest point End Pass type
(mag) Time Alt. Az. Time Alt. Az. Time Alt. Az.
28 May -3.6 22:39:20 10° W 22:42:31 49° SSW 22:45:04 14° ESE visible
29 May -2.0 00:16:05 10° W 00:17:42 18° SW 00:17:42 18° SW visible
29 May -3.7 21:47:08 10° W 21:50:21 56° S 21:53:34 10° ESE visible
29 May -2.8 23:23:40 10° W 23:26:30 27° SSW 23:27:06 25° S visible
30 May -3.1 22:31:21 10° W 22:34:24 36° SSW 22:36:31 17° SE visible
31 May -1.3 00:08:58 10° WSW 00:09:08 10° WSW 00:09:08 10° WSW visible
31 May -3.4 21:39:05 10° W 21:42:14 46° SSW 21:45:23 10° ESE visible
31 May -2.1 23:15:57 10° WSW 23:18:12 17° SSW 23:18:35 17° SSW visible
01 Jun -2.4 22:23:25 10° W 22:26:09 24° SSW 22:28:02 15° SSE visible
03 Jun -1.7 22:15:46 10° WSW 22:17:46 15° SW 22:19:40 10° S visible
